Location: Cardiff
(53.7833°N, 113.6000°W)
Time: 07:25:57
(UTC+00:00)

RS-15 - Pass Details

Date: 07 December 2023
Orbit: 1893 x 2151 km, 64.8° (Epoch: 21 February)

Event Time Altitude Azimuth Distance (km) Brightness Sun altitude
Exits shadow 12:08:57 41° 305° (NW) 2,674 8.3 -29.3°
Maximum altitude 12:13:45 71° 235° (SW) 2,043 7.8 -28.6°
Drops below altitude 10° 12:24:37 10° 154° (SSE) 4,291 10.1 -27.0°
Sets 12:27:49 0° 152° (SSE) 5,273 10.7 -26.5°
